Terminal Aerodrome Forecast
Issued by NWS

Home | Current Version | Previous Version | Text Only | Print | Product List | Glossary On
Versions: 1 2 3 4 5 6 7 8 9 10 11 12 13 14 15 16 17 18 19 20 21 22
054
FTUS43 KAPX 110520
TAFPLN
TAF
KPLN 110520Z 1106/1206 35008KT P6SM BKN035
      TEMPO 1106/1108 BKN025
     FM110800 35004KT P6SM SCT035
     FM111300 33008KT P6SM BKN035
     FM112000 28010G16KT 5SM -SHSN OVC035
     FM120000 27008KT 5SM -SHSN OVC035=

USA.gov is the U.S. government's official web portal to all federal, state and local government web resources and services.